"FRM_AIS_EDR_2217.DAT           ",2005-10-05T12:02:27.92 ,"1/0076593742.56065",    0,    0,  274896,"AIS","B1","B1","B1","B1","PISd",0,0,0,0,"B1", 0,15,   0, 0,    0,"AIS","N/A    ","OK ","OK ",    001172.787,    -085.166,    -048.474,    0003.945,    0071.047
"FRM_AIS_EDR_2217.DAT           ",2005-10-05T12:02:35.46 ,"1/0076593750.26128",    0,    1,  274896,"AIS","B1","B1","B1","B1","PISd",0,0,0,0,"B1", 0,15,   0, 0,    0,"AIS","N/A    ","OK ","OK ",    001162.412,    -085.397,    -045.652,    0004.135,    0070.731
"FRM_AIS_EDR_2217.DAT           ",2005-10-05T12:02:43.00 ,"1/0076593757.61727",    0,    2,  274896,"AIS","B1","B1","B1","B1","PISd",0,0,0,0,"B1", 0,15,   0, 0,    0,"AIS","N/A    ","OK ","OK ",    001152.067,    -085.615,    -042.523,    0004.346,    0070.414
"FRM_AIS_EDR_2217.DAT           ",2005-10-05T12:02:50.55 ,"1/0076593765.31791",    0,    3,  274896,"AIS","B1","B1","B1","B1","PISd",0,0,0,0,"B1", 0,15,   0, 0,    0,"AIS","N/A    ","OK ","OK ",    001141.755,    -085.820,    -039.058,    0004.579,    0070.095
"FRM_AIS_EDR_2217.DAT           ",2005-10-05T12:02:58.09 ,"1/0076593773.01854",    0,    4,  274896,"AIS","B1","B1","B1","B1","PISd",0,0,0,0,"B1", 0,15,   0, 0,    0,"AIS","N/A    ","OK ","OK ",    001131.474,    -086.009,    -035.231,    0004.836,    0069.775
"FRM_AIS_EDR_2217.DAT           ",2005-10-05T12:03:05.63 ,"1/0076593780.37453",    0,    5,  274896,"AIS","B1","B1","B1","B1","PISd",0,0,0,0,"B1", 0,15,   0, 0,    0,"AIS","N/A    ","OK ","OK ",    001121.225,    -086.179,    -031.023,    0005.119,    0069.453
"FRM_AIS_EDR_2217.DAT           ",2005-10-05T12:03:13.18 ,"1/0076593788.07517",    0,    6,  274896,"AIS","B1","B1","B1","B1","PISd",0,0,0,0,"B1", 0,15,   0, 0,    0,"AIS","N/A    ","OK ","OK ",    001111.010,    -086.327,    -026.427,    0005.427,    0069.130
"FRM_AIS_EDR_2217.DAT           ",2005-10-05T12:03:20.72 ,"1/0076593795.43116",    0,    7,  274896,"AIS","B1","B1","B1","B1","PISd",0,0,0,0,"B1", 0,15,   0, 0,    0,"AIS","N/A    ","OK ","OK ",    001100.828,    -086.449,    -021.456,    0005.761,    0068.806
"FRM_AIS_EDR_2217.DAT           ",2005-10-05T12:03:28.26 ,"1/0076593803.13179",    0,    8,  274896,"AIS","B1","B1","B1","B1","PISd",0,0,0,0,"B1", 0,15,   0, 0,    0,"AIS","N/A    ","OK ","OK ",    001090.679,    -086.543,    -016.147,    0006.117,    0068.480
"FRM_AIS_EDR_2217.DAT           ",2005-10-05T12:03:35.80 ,"1/0076593810.48779",    0,    9,  274896,"AIS","B1","B1","B1","B1","PISd",0,0,0,0,"B1", 0,15,   0, 0,    0,"AIS","N/A    ","OK ","OK ",    001080.565,    -086.606,    -010.565,    0006.491,    0068.153
"FRM_AIS_EDR_2217.DAT           ",2005-10-05T12:03:43.35 ,"1/0076593818.18842",    0,   10,  274896,"AIS","B1","B1","B1","B1","PISd",0,0,0,0,"B1", 0,15,   0, 0,    0,"AIS","N/A    ","OK ","OK ",    001070.486,    -086.635,    -004.804,    0006.877,    0067.824
"FRM_AIS_EDR_2217.DAT           ",2005-10-05T12:03:50.89 ,"1/0076593825.54442",    0,   11,  274896,"AIS","B1","B1","B1","B1","PISd",0,0,0,0,"B1", 0,15,   0, 0,    0,"AIS","N/A    ","OK ","OK ",    001060.443,    -086.630,    0001.025,    0007.268,    0067.494
"FRM_AIS_EDR_2217.DAT           ",2005-10-05T12:03:58.43 ,"1/0076593833.24505",    0,   12,  274896,"AIS","B1","B1","B1","B1","PISd",0,0,0,0,"B1", 0,15,   0, 0,    0,"AIS","N/A    ","OK ","OK ",    001050.435,    -086.589,    0006.801,    0007.654,    0067.163
"FRM_AIS_EDR_2217.DAT           ",2005-10-05T12:04:05.98 ,"1/0076593840.60104",    0,   13,  274896,"AIS","B1","B1","B1","B1","PISd",0,0,0,0,"B1", 0,15,   0, 0,    0,"AIS","N/A    ","OK ","OK ",    001040.464,    -086.514,    0012.409,    0008.031,    0066.829
"FRM_AIS_EDR_2217.DAT           ",2005-10-05T12:04:13.52 ,"1/0076593848.30168",    0,   14,  274896,"AIS","B1","B1","B1","B1","PISd",0,0,0,0,"B1", 0,15,   0, 0,    0,"AIS","N/A    ","OK ","OK ",    001030.530,    -086.406,    0017.754,    0008.389,    0066.495
"FRM_AIS_EDR_2217.DAT           ",2005-10-05T12:04:21.06 ,"1/0076593856.00231",    0,   15,  274896,"AIS","B1","B1","B1","B1","PISd",0,0,0,0,"B1", 0,15,   0, 0,    0,"AIS","N/A    ","OK ","OK ",    001020.633,    -086.268,    0022.768,    0008.725,    0066.159
"FRM_AIS_EDR_2217.DAT           ",2005-10-05T12:04:28.61 ,"1/0076593863.35830",    0,   16,  274896,"AIS","B1","B1","B1","B1","PISd",0,0,0,0,"B1", 0,15,   0, 0,    0,"AIS","N/A    ","OK ","OK ",    001010.775,    -086.103,    0027.410,    0009.037,    0065.822
"FRM_AIS_EDR_2217.DAT           ",2005-10-05T12:04:36.15 ,"1/0076593871.05894",    0,   17,  274896,"AIS","B1","B1","B1","B1","PISd",0,0,0,0,"B1", 0,15,   0, 0,    0,"AIS","N/A    ","OK ","OK ",    001000.954,    -085.913,    0031.665,    0009.322,    0065.483
"FRM_AIS_EDR_2217.DAT           ",2005-10-05T12:04:43.69 ,"1/0076593878.41493",    0,   18,  274896,"AIS","B1","B1","B1","B1","PISd",0,0,0,0,"B1", 0,15,   0, 0,    0,"AIS","N/A    ","OK ","OK ",    000991.173,    -085.702,    0035.537,    0009.582,    0065.142
"FRM_AIS_EDR_2217.DAT           ",2005-10-05T12:04:51.24 ,"1/0076593886.11556",    0,   19,  274896,"AIS","B1","B1","B1","B1","PISd",0,0,0,0,"B1", 0,15,   0, 0,    0,"AIS","N/A    ","OK ","OK ",    000981.432,    -085.471,    0039.044,    0009.818,    0064.801
"FRM_AIS_EDR_2217.DAT           ",2005-10-05T12:04:58.78 ,"1/0076593893.47156",    0,   20,  274896,"AIS","B1","B1","B1","B1","PISd",0,0,0,0,"B1", 0,15,   0, 0,    0,"AIS","N/A    ","OK ","OK ",    000971.731,    -085.224,    0042.211,    0010.032,    0064.457
"FRM_AIS_EDR_2217.DAT           ",2005-10-05T12:05:06.32 ,"1/0076593901.17219",    0,   21,  274896,"AIS","B1","B1","B1","B1","PISd",0,0,0,0,"B1", 0,15,   0, 0,    0,"AIS","N/A    ","OK ","OK ",    000962.070,    -084.962,    0045.069,    0010.224,    0064.113
"FRM_AIS_EDR_2217.DAT           ",2005-10-05T12:05:13.87 ,"1/0076593908.52818",    0,   22,  274896,"AIS","B1","B1","B1","B1","PISd",0,0,0,0,"B1", 0,15,   0, 0,    0,"AIS","N/A    ","OK ","OK ",    000952.451,    -084.687,    0047.647,    0010.398,    0063.766
"FRM_AIS_EDR_2217.DAT           ",2005-10-05T12:05:21.41 ,"1/0076593916.22882",    0,   23,  274896,"AIS","B1","B1","B1","B1","PISd",0,0,0,0,"B1", 0,15,   0, 0,    0,"AIS","N/A    ","OK ","OK ",    000942.873,    -084.402,    0049.975,    0010.555,    0063.419
"FRM_AIS_EDR_2217.DAT           ",2005-10-05T12:05:28.95 ,"1/0076593923.58481",    0,   24,  274896,"AIS","B1","B1","B1","B1","PISd",0,0,0,0,"B1", 0,15,   0, 0,    0,"AIS","N/A    ","OK ","OK ",    000933.338,    -084.106,    0052.080,    0010.698,    0063.070
"FRM_AIS_EDR_2217.DAT           ",2005-10-05T12:05:36.50 ,"1/0076593931.28545",    0,   25,  274896,"AIS","B1","B1","B1","B1","PISd",0,0,0,0,"B1", 0,15,   0, 0,    0,"AIS","N/A    ","OK ","OK ",    000923.846,    -083.802,    0053.988,    0010.827,    0062.719
"FRM_AIS_EDR_2217.DAT           ",2005-10-05T12:05:44.04 ,"1/0076593938.64144",    0,   26,  274896,"AIS","B1","B1","B1","B1","PISd",0,0,0,0,"B1", 0,15,   0, 0,    0,"AIS","N/A    ","OK ","OK ",    000914.398,    -083.490,    0055.721,    0010.944,    0062.367
"FRM_AIS_EDR_2217.DAT           ",2005-10-05T12:05:51.58 ,"1/0076593946.34207",    0,   27,  274896,"AIS","B1","B1","B1","B1","PISd",0,0,0,0,"B1", 0,15,   0, 0,    0,"AIS","N/A    ","OK ","OK ",    000904.993,    -083.171,    0057.299,    0011.052,    0062.013
"FRM_AIS_EDR_2217.DAT           ",2005-10-05T12:05:59.13 ,"1/0076593954.04271",    0,   28,  274896,"AIS","B1","B1","B1","B1","PISd",0,0,0,0,"B1", 0,15,   0, 0,    0,"AIS","N/A    ","OK ","OK ",    000895.634,    -082.846,    0058.738,    0011.150,    0061.658
"FRM_AIS_EDR_2217.DAT           ",2005-10-05T12:06:06.67 ,"1/0076593961.39870",    0,   29,  274896,"AIS","B1","B1","B1","B1","PISd",0,0,0,0,"B1", 0,15,   0, 0,    0,"AIS","N/A    ","OK ","OK ",    000886.319,    -082.515,    0060.056,    0011.239,    0061.301
"FRM_AIS_EDR_2217.DAT           ",2005-10-05T12:06:14.21 ,"1/0076593969.09933",    0,   30,  274896,"AIS","B1","B1","B1","B1","PISd",0,0,0,0,"B1", 0,15,   0, 0,    0,"AIS","N/A    ","OK ","OK ",    000877.050,    -082.179,    0061.264,    0011.322,    0060.943
"FRM_AIS_EDR_2217.DAT           ",2005-10-05T12:06:21.76 ,"1/0076593976.45533",    0,   31,  274896,"AIS","B1","B1","B1","B1","PISd",0,0,0,0,"B1", 0,15,   0, 0,    0,"AIS","N/A    ","OK ","OK ",    000867.828,    -081.838,    0062.375,    0011.398,    0060.584
"FRM_AIS_EDR_2217.DAT           ",2005-10-05T12:06:29.30 ,"1/0076593984.15596",    0,   32,  274896,"AIS","B1","B1","B1","B1","PISd",0,0,0,0,"B1", 0,15,   0, 0,    0,"AIS","N/A    ","OK ","OK ",    000858.653,    -081.493,    0063.400,    0011.469,    0060.223
"FRM_AIS_EDR_2217.DAT           ",2005-10-05T12:06:36.84 ,"1/0076593991.51195",    0,   33,  274896,"AIS","B1","B1","B1","B1","PISd",0,0,0,0,"B1", 0,15,   0, 0,    0,"AIS","N/A    ","OK ","OK ",    000849.525,    -081.143,    0064.346,    0011.534,    0059.860
"FRM_AIS_EDR_2217.DAT           ",2005-10-05T12:06:44.39 ,"1/0076593999.21259",    0,   34,  274896,"AIS","B1","B1","B1","B1","PISd",0,0,0,0,"B1", 0,15,   0, 0,    0,"AIS","N/A    ","OK ","OK ",    000840.446,    -080.790,    0065.222,    0011.594,    0059.496
"FRM_AIS_EDR_2217.DAT           ",2005-10-05T12:06:51.93 ,"1/0076594006.56858",    0,   35,  274896,"AIS","B1","B1","B1","B1","PISd",0,0,0,0,"B1", 0,15,   0, 0,    0,"AIS","N/A    ","OK ","OK ",    000831.415,    -080.433,    0066.035,    0011.650,    0059.131
"FRM_AIS_EDR_2217.DAT           ",2005-10-05T12:06:59.47 ,"1/0076594014.26921",    0,   36,  274896,"AIS","B1","B1","B1","B1","PISd",0,0,0,0,"B1", 0,15,   0, 0,    0,"AIS","N/A    ","OK ","OK ",    000822.434,    -080.073,    0066.791,    0011.703,    0058.764
"FRM_AIS_EDR_2217.DAT           ",2005-10-05T12:07:07.01 ,"1/0076594021.62521",    0,   37,  274896,"AIS","B1","B1","B1","B1","PISd",0,0,0,0,"B1", 0,15,   0, 0,    0,"AIS","N/A    ","OK ","OK ",    000813.503,    -079.709,    0067.495,    0011.752,    0058.395
"FRM_AIS_EDR_2217.DAT           ",2005-10-05T12:07:14.56 ,"1/0076594029.32584",    0,   38,  274896,"AIS","B1","B1","B1","B1","PISd",0,0,0,0,"B1", 0,15,   0, 0,    0,"AIS","N/A    ","OK ","OK ",    000804.622,    -079.342,    0068.152,    0011.798,    0058.026
"FRM_AIS_EDR_2217.DAT           ",2005-10-05T12:07:22.10 ,"1/0076594037.02647",    0,   39,  274896,"AIS","B1","B1","B1","B1","PISd",0,0,0,0,"B1", 0,15,   0, 0,    0,"AIS","N/A    ","OK ","OK ",    000795.793,    -078.973,    0068.767,    0011.841,    0057.654
"FRM_AIS_EDR_2217.DAT           ",2005-10-05T12:07:29.64 ,"1/0076594044.38247",    0,   40,  274896,"AIS","B1","B1","B1","B1","PISd",0,0,0,0,"B1", 0,15,   0, 0,    0,"AIS","N/A    ","OK ","OK ",    000787.016,    -078.600,    0069.342,    0011.881,    0057.281
"FRM_AIS_EDR_2217.DAT           ",2005-10-05T12:07:37.19 ,"1/0076594052.08310",    0,   41,  274896,"AIS","B1","B1","B1","B1","PISd",0,0,0,0,"B1", 0,15,   0, 0,    0,"AIS","N/A    ","OK ","OK ",    000778.291,    -078.225,    0069.882,    0011.919,    0056.907
"FRM_AIS_EDR_2217.DAT           ",2005-10-05T12:07:44.73 ,"1/0076594059.43909",    0,   42,  274896,"AIS","B1","B1","B1","B1","PISd",0,0,0,0,"B1", 0,15,   0, 0,    0,"AIS","N/A    ","OK ","OK ",    000769.619,    -077.847,    0070.390,    0011.955,    0056.531
"FRM_AIS_EDR_2217.DAT           ",2005-10-05T12:07:52.27 ,"1/0076594067.13973",    0,   43,  274896,"AIS","B1","B1","B1","B1","PISd",0,0,0,0,"B1", 0,15,   0, 0,    0,"AIS","N/A    ","OK ","OK ",    000761.001,    -077.466,    0070.867,    0011.989,    0056.154
"FRM_AIS_EDR_2217.DAT           ",2005-10-05T12:07:59.82 ,"1/0076594074.49572",    0,   44,  274896,"AIS","B1","B1","B1","B1","PISd",0,0,0,0,"B1", 0,15,   0, 0,    0,"AIS","N/A    ","OK ","OK ",    000752.437,    -077.084,    0071.317,    0012.021,    0055.775
"FRM_AIS_EDR_2217.DAT           ",2005-10-05T12:08:07.36 ,"1/0076594082.19636",    0,   45,  274896,"AIS","B1","B1","B1","B1","PISd",0,0,0,0,"B1", 0,15,   0, 0,    0,"AIS","N/A    ","OK ","OK ",    000743.929,    -076.698,    0071.741,    0012.051,    0055.395
"FRM_AIS_EDR_2217.DAT           ",2005-10-05T12:08:14.90 ,"1/0076594089.55235",    0,   46,  274896,"AIS","B1","B1","B1","B1","PISd",0,0,0,0,"B1", 0,15,   0, 0,    0,"AIS","N/A    ","OK ","OK ",    000735.476,    -076.310,    0072.142,    0012.080,    0055.013
"FRM_AIS_EDR_2217.DAT           ",2005-10-05T12:08:22.45 ,"1/0076594097.25298",    0,   47,  274896,"AIS","B1","B1","B1","B1","PISd",0,0,0,0,"B1", 0,15,   0, 0,    0,"AIS","N/A    ","OK ","OK ",    000727.079,    -075.920,    0072.521,    0012.107,    0054.630
"FRM_AIS_EDR_2217.DAT           ",2005-10-05T12:08:29.99 ,"1/0076594104.60898",    0,   48,  274896,"AIS","B1","B1","B1","B1","PISd",0,0,0,0,"B1", 0,15,   0, 0,    0,"AIS","N/A    ","OK ","OK ",    000718.739,    -075.528,    0072.880,    0012.133,    0054.246
"FRM_AIS_EDR_2217.DAT           ",2005-10-05T12:08:37.53 ,"1/0076594112.30961",    0,   49,  274896,"AIS","B1","B1","B1","B1","PISd",0,0,0,0,"B1", 0,15,   0, 0,    0,"AIS","N/A    ","OK ","OK ",    000710.457,    -075.134,    0073.220,    0012.158,    0053.860
"FRM_AIS_EDR_2217.DAT           ",2005-10-05T12:08:45.08 ,"1/0076594120.01024",    0,   50,  274896,"AIS","B1","B1","B1","B1","PISd",0,0,0,0,"B1", 0,15,   0, 0,    0,"AIS","N/A    ","OK ","OK ",    000702.233,    -074.737,    0073.543,    0012.182,    0053.473
"FRM_AIS_EDR_2217.DAT           ",2005-10-05T12:08:52.62 ,"1/0076594127.36624",    0,   51,  274896,"AIS","B1","B1","B1","B1","PISd",0,0,0,0,"B1", 0,15,   0, 0,    0,"AIS","N/A    ","OK ","OK ",    000694.068,    -074.339,    0073.850,    0012.204,    0053.084
"FRM_AIS_EDR_2217.DAT           ",2005-10-05T12:09:00.16 ,"1/0076594135.06687",    0,   52,  274896,"AIS","B1","B1","B1","B1","PISd",0,0,0,0,"B1", 0,15,   0, 0,    0,"AIS","N/A    ","OK ","OK ",    000685.962,    -073.938,    0074.141,    0012.226,    0052.694
"FRM_AIS_EDR_2217.DAT           ",2005-10-05T12:09:07.71 ,"1/0076594142.42286",    0,   53,  274896,"AIS","B1","B1","B1","B1","PISd",0,0,0,0,"B1", 0,15,   0, 0,    0,"AIS","N/A    ","OK ","OK ",    000677.917,    -073.535,    0074.419,    0012.246,    0052.302
"FRM_AIS_EDR_2217.DAT           ",2005-10-05T12:09:15.25 ,"1/0076594150.12350",    0,   54,  274896,"AIS","B1","B1","B1","B1","PISd",0,0,0,0,"B1", 0,15,   0, 0,    0,"AIS","N/A    ","OK ","OK ",    000669.932,    -073.130,    0074.683,    0012.266,    0051.909
"FRM_AIS_EDR_2217.DAT           ",2005-10-05T12:09:22.79 ,"1/0076594157.47949",    0,   55,  274896,"AIS","B1","B1","B1","B1","PISd",0,0,0,0,"B1", 0,15,   0, 0,    0,"AIS","N/A    ","OK ","OK ",    000662.009,    -072.723,    0074.935,    0012.284,    0051.515
"FRM_AIS_EDR_2217.DAT           ",2005-10-05T12:09:30.34 ,"1/0076594165.18012",    0,   56,  274896,"AIS","B1","B1","B1","B1","PISd",0,0,0,0,"B1", 0,15,   0, 0,    0,"AIS","N/A    ","OK ","OK ",    000654.148,    -072.314,    0075.175,    0012.303,    0051.119
"FRM_AIS_EDR_2217.DAT           ",2005-10-05T12:09:37.88 ,"1/0076594172.53612",    0,   57,  274896,"AIS","B1","B1","B1","B1","PISd",0,0,0,0,"B1", 0,15,   0, 0,    0,"AIS","N/A    ","OK ","OK ",    000646.349,    -071.904,    0075.405,    0012.320,    0050.722
"FRM_AIS_EDR_2217.DAT           ",2005-10-05T12:09:45.42 ,"1/0076594180.23675",    0,   58,  274896,"AIS","B1","B1","B1","B1","PISd",0,0,0,0,"B1", 0,15,   0, 0,    0,"AIS","N/A    ","OK ","OK ",    000638.614,    -071.491,    0075.624,    0012.337,    0050.323
"FRM_AIS_EDR_2217.DAT           ",2005-10-05T12:09:52.97 ,"1/0076594187.59274",    0,   59,  274896,"AIS","B1","B1","B1","B1","PISd",0,0,0,0,"B1", 0,15,   0, 0,    0,"AIS","N/A    ","OK ","OK ",    000630.944,    -071.077,    0075.834,    0012.352,    0049.924
"FRM_AIS_EDR_2217.DAT           ",2005-10-05T12:10:00.51 ,"1/0076594195.29338",    0,   60,  274896,"AIS","B1","B1","B1","B1","PISd",0,0,0,0,"B1", 0,15,   0, 0,    0,"AIS","N/A    ","OK ","OK ",    000623.338,    -070.660,    0076.034,    0012.368,    0049.522
"FRM_AIS_EDR_2217.DAT           ",2005-10-05T12:10:08.05 ,"1/0076594202.64937",    0,   61,  274896,"AIS","B1","B1","B1","B1","PISd",0,0,0,0,"B1", 0,15,   0, 0,    0,"AIS","N/A    ","OK ","OK ",    000615.797,    -070.242,    0076.226,    0012.383,    0049.120
"FRM_AIS_EDR_2217.DAT           ",2005-10-05T12:10:15.59 ,"1/0076594210.35000",    0,   62,  274896,"AIS","B1","B1","B1","B1","PISd",0,0,0,0,"B1", 0,15,   0, 0,    0,"AIS","N/A    ","OK ","OK ",    000608.322,    -069.822,    0076.410,    0012.397,    0048.716
"FRM_AIS_EDR_2217.DAT           ",2005-10-05T12:10:23.14 ,"1/0076594218.05064",    0,   63,  274896,"AIS","B1","B1","B1","B1","PISd",0,0,0,0,"B1", 0,15,   0, 0,    0,"AIS","N/A    ","OK ","OK ",    000600.915,    -069.400,    0076.586,    0012.411,    0048.311
"FRM_AIS_EDR_2217.DAT           ",2005-10-05T12:10:30.68 ,"1/0076594225.40663",    0,   64,  274896,"AIS","B1","B1","B1","B1","PISd",0,0,0,0,"B1", 0,15,   0, 0,    0,"AIS","N/A    ","OK ","OK ",    000593.574,    -068.977,    0076.755,    0012.424,    0047.905
"FRM_AIS_EDR_2217.DAT           ",2005-10-05T12:10:38.22 ,"1/0076594233.10726",    0,   65,  274896,"AIS","B1","B1","B1","B1","PISd",0,0,0,0,"B1", 0,15,   0, 0,    0,"AIS","N/A    ","OK ","OK ",    000586.302,    -068.551,    0076.917,    0012.437,    0047.497
"FRM_AIS_EDR_2217.DAT           ",2005-10-05T12:10:45.77 ,"1/0076594240.46326",    0,   66,  274896,"AIS","B1","B1","B1","B1","PISd",0,0,0,0,"B1", 0,15,   0, 0,    0,"AIS","N/A    ","OK ","OK ",    000579.099,    -068.124,    0077.073,    0012.449,    0047.088
"FRM_AIS_EDR_2217.DAT           ",2005-10-05T12:10:53.31 ,"1/0076594248.16389",    0,   67,  274896,"AIS","B1","B1","B1","B1","PISd",0,0,0,0,"B1", 0,15,   0, 0,    0,"AIS","N/A    ","OK ","OK ",    000571.965,    -067.695,    0077.222,    0012.461,    0046.678
"FRM_AIS_EDR_2217.DAT           ",2005-10-05T12:11:00.85 ,"1/0076594255.51988",    0,   68,  274896,"AIS","B1","B1","B1","B1","PISd",0,0,0,0,"B1", 0,15,   0, 0,    0,"AIS","N/A    ","OK ","OK ",    000564.901,    -067.264,    0077.366,    0012.473,    0046.266
"FRM_AIS_EDR_2217.DAT           ",2005-10-05T12:11:08.40 ,"1/0076594263.22052",    0,   69,  274896,"AIS","B1","B1","B1","B1","PISd",0,0,0,0,"B1", 0,15,   0, 0,    0,"AIS","N/A    ","OK ","OK ",    000557.908,    -066.832,    0077.504,    0012.484,    0045.854
"FRM_AIS_EDR_2217.DAT           ",2005-10-05T12:11:15.94 ,"1/0076594270.57651",    0,   70,  274896,"AIS","B1","B1","B1","B1","PISd",0,0,0,0,"B1", 0,15,   0, 0,    0,"AIS","N/A    ","OK ","OK ",    000550.986,    -066.398,    0077.637,    0012.495,    0045.440
"FRM_AIS_EDR_2217.DAT           ",2005-10-05T12:11:23.48 ,"1/0076594278.27714",    0,   71,  274896,"AIS","B1","B1","B1","B1","PISd",0,0,0,0,"B1", 0,15,   0, 0,    0,"AIS","N/A    ","OK ","OK ",    000544.136,    -065.963,    0077.764,    0012.506,    0045.025
"FRM_AIS_EDR_2217.DAT           ",2005-10-05T12:11:31.03 ,"1/0076594285.63314",    0,   72,  274896,"AIS","B1","B1","B1","B1","PISd",0,0,0,0,"B1", 0,15,   0, 0,    0,"AIS","N/A    ","OK ","OK ",    000537.359,    -065.525,    0077.887,    0012.516,    0044.609
"FRM_AIS_EDR_2217.DAT           ",2005-10-05T12:11:38.57 ,"1/0076594293.33377",    0,   73,  274896,"AIS","B1","B1","B1","B1","PISd",0,0,0,0,"B1", 0,15,   0, 0,    0,"AIS","N/A    ","OK ","OK ",    000530.656,    -065.086,    0078.005,    0012.526,    0044.192
"FRM_AIS_EDR_2217.DAT           ",2005-10-05T12:11:46.11 ,"1/0076594301.03441",    0,   74,  274896,"AIS","B1","B1","B1","B1","PISd",0,0,0,0,"B1", 0,15,   0, 0,    0,"AIS","N/A    ","OK ","OK ",    000524.026,    -064.646,    0078.119,    0012.536,    0043.774
"FRM_AIS_EDR_2217.DAT           ",2005-10-05T12:11:53.66 ,"1/0076594308.39040",    0,   75,  274896,"AIS","B1","B1","B1","B1","PISd",0,0,0,0,"B1", 0,15,   0, 0,    0,"AIS","N/A    ","OK ","OK ",    000517.472,    -064.204,    0078.229,    0012.545,    0043.354
"FRM_AIS_EDR_2217.DAT           ",2005-10-05T12:12:01.20 ,"1/0076594316.09103",    0,   76,  274896,"AIS","B1","B1","B1","B1","PISd",0,0,0,0,"B1", 0,15,   0, 0,    0,"AIS","N/A    ","OK ","OK ",    000510.992,    -063.760,    0078.335,    0012.554,    0042.934
"FRM_AIS_EDR_2217.DAT           ",2005-10-05T12:12:08.74 ,"1/0076594323.44703",    0,   77,  274896,"AIS","B1","B1","B1","B1","PISd",0,0,0,0,"B1", 0,15,   0, 0,    0,"AIS","N/A    ","OK ","OK ",    000504.589,    -063.314,    0078.437,    0012.563,    0042.512
"FRM_AIS_EDR_2217.DAT           ",2005-10-05T12:12:16.29 ,"1/0076594331.14766",    0,   78,  274896,"AIS","B1","B1","B1","B1","PISd",0,0,0,0,"B1", 0,15,   0, 0,    0,"AIS","N/A    ","OK ","OK ",    000498.262,    -062.868,    0078.536,    0012.571,    0042.090
"FRM_AIS_EDR_2217.DAT           ",2005-10-05T12:12:23.83 ,"1/0076594338.50365",    0,   79,  274896,"AIS","B1","B1","B1","B1","PISd",0,0,0,0,"B1", 0,15,   0, 0,    0,"AIS","N/A    ","OK ","OK ",    000492.013,    -062.419,    0078.631,    0012.580,    0041.666
"FRM_AIS_EDR_2217.DAT           ",2005-10-05T12:12:31.37 ,"1/0076594346.20429",    0,   80,  274896,"AIS","B1","B1","B1","B1","PISd",0,0,0,0,"B1", 0,15,   0, 0,    0,"AIS","N/A    ","OK ","OK ",    000485.842,    -061.969,    0078.722,    0012.588,    0041.242
"FRM_AIS_EDR_2217.DAT           ",2005-10-05T12:12:38.92 ,"1/0076594353.56028",    0,   81,  274896,"AIS","B1","B1","B1","B1","PISd",0,0,0,0,"B1", 0,15,   0, 0,    0,"AIS","N/A    ","OK ","OK ",    000479.750,    -061.518,    0078.811,    0012.596,    0040.816
"FRM_AIS_EDR_2217.DAT           ",2005-10-05T12:12:46.46 ,"1/0076594361.26091",    0,   82,  274896,"AIS","B1","B1","B1","B1","PISd",0,0,0,0,"B1", 0,15,   0, 0,    0,"AIS","N/A    ","OK ","OK ",    000473.737,    -061.065,    0078.896,    0012.604,    0040.390
"FRM_AIS_EDR_2217.DAT           ",2005-10-05T12:12:54.00 ,"1/0076594368.61691",    0,   83,  274896,"AIS","B1","B1","B1","B1","PISd",0,0,0,0,"B1", 0,15,   0, 0,    0,"AIS","N/A    ","OK ","OK ",    000467.803,    -060.610,    0078.978,    0012.611,    0039.963
"FRM_AIS_EDR_2217.DAT           ",2005-10-05T12:13:01.55 ,"1/0076594376.31754",    0,   84,  274896,"AIS","B1","B1","B1","B1","PISd",0,0,0,0,"B1", 0,15,   0, 0,    0,"AIS","N/A    ","OK ","OK ",    000461.951,    -060.154,    0079.058,    0012.619,    0039.535
"FRM_AIS_EDR_2217.DAT           ",2005-10-05T12:13:09.09 ,"1/0076594384.01817",    0,   85,  274896,"AIS","B1","B1","B1","B1","PISd",0,0,0,0,"B1", 0,15,   0, 0,    0,"AIS","N/A    ","OK ","OK ",    000456.180,    -059.697,    0079.135,    0012.626,    0039.106
"FRM_AIS_EDR_2217.DAT           ",2005-10-05T12:13:16.63 ,"1/0076594391.37417",    0,   86,  274896,"AIS","B1","B1","B1","B1","PISd",0,0,0,0,"B1", 0,15,   0, 0,    0,"AIS","N/A    ","OK ","OK ",    000450.490,    -059.238,    0079.209,    0012.633,    0038.676
"FRM_AIS_EDR_2217.DAT           ",2005-10-05T12:13:24.17 ,"1/0076594399.07480",    0,   87,  274896,"AIS","B1","B1","B1","B1","PISd",0,0,0,0,"B1", 0,15,   0, 0,    0,"AIS","N/A    ","OK ","OK ",    000444.883,    -058.778,    0079.281,    0012.639,    0038.246
"FRM_AIS_EDR_2217.DAT           ",2005-10-05T12:13:31.72 ,"1/0076594406.43079",    0,   88,  274896,"AIS","B1","B1","B1","B1","PISd",0,0,0,0,"B1", 0,15,   0, 0,    0,"AIS","N/A    ","OK ","OK ",    000439.359,    -058.316,    0079.350,    0012.646,    0037.815
"FRM_AIS_EDR_2217.DAT           ",2005-10-05T12:13:39.26 ,"1/0076594414.13143",    0,   89,  274896,"AIS","B1","B1","B1","B1","PISd",0,0,0,0,"B1", 0,15,   0, 0,    0,"AIS","N/A    ","OK ","OK ",    000433.919,    -057.854,    0079.417,    0012.653,    0037.383
"FRM_AIS_EDR_2217.DAT           ",2005-10-05T12:13:46.80 ,"1/0076594421.48742",    0,   90,  274896,"AIS","B1","B1","B1","B1","PISd",0,0,0,0,"B1", 0,15,   0, 0,    0,"AIS","N/A    ","OK ","OK ",    000428.564,    -057.389,    0079.482,    0012.659,    0036.951